Date String (YYYY-MM-DD hh:mm:ss) UTC,Instrument flags,absolute air pressure of the measurement (hPa),sample flow rate (lpm),inlet stack bypass flow (lpm),air temperature of the measurement (°C),ambient temperature measured by the external sensor (°C),aerosol sample conditioner tube jacket temperature (°C),OPC LED temperature (°C),internal box temperature (°C),relative humidity of the measurement (%),span deviation,mass concentration of particles derived from Lorenz-Mie calculation of OPC scattering (μg/m³),mass concentration of particles derived from Lorenz-Mie calculation of OPC scattering (μg/m³),mass concentration of particles derived from Lorenz-Mie calculation of OPC scattering (μg/m³)
DateTimeUTC,F1_M11,P_M11,Q1_M11,Q2_M11,T1_M11,T2_M11,T3_M11,T4_M11,T5_M11,U1_M11,ZSPAN_M11,X0_M11,X2_M11,X1_M11
2023-09-25 10:00:00,SystemResetWarning,0835.8,5.00,000.00,028.4,026.9,000.0,036.9,029.9,10.0,0000.0,0007.65,0003.41,0003.04
2023-09-25 10:01:00,SystemResetWarning,0835.5,5.02,000.00,028.4,026.9,000.0,036.9,029.8,10.0,0000.0,0007.72,0003.42,0003.05
2023-09-25 10:02:00,SystemResetWarning,0835.6,5.00,000.00,028.4,026.9,000.0,036.9,029.8,10.0,0000.0,0007.67,0003.42,0003.06
2023-09-25 10:03:00,SystemResetWarning,0835.5,4.99,000.00,028.4,026.9,000.0,036.9,029.9,10.0,0000.0,0007.79,0003.42,0003.07
2023-09-25 10:04:00,SystemResetWarning,0835.5,4.99,000.00,028.4,026.9,000.0,036.9,029.9,9.9,0000.0,0007.83,0003.40,0003.07
2023-09-25 10:05:00,SystemResetWarning,0835.6,5.00,000.00,028.4,026.8,000.0,036.9,029.8,9.9,0000.0,0007.78,0003.41,0003.08
2023-09-25 10:06:00,SystemResetWarning,0835.5,5.01,000.00,028.4,026.8,000.0,036.8,029.8,9.8,0000.0,0007.26,0003.41,0003.09
2023-09-25 10:07:00,SystemResetWarning,0835.6,5.00,000.00,028.4,026.8,000.0,036.8,029.8,9.8,0000.0,0006.71,0003.39,0003.09
2023-09-25 10:08:00,SystemResetWarning,0835.5,4.99,000.00,028.4,026.8,000.0,036.8,029.8,9.9,0000.0,0006.43,0003.39,0003.10
2023-09-25 10:09:00,SystemResetWarning,0835.5,4.99,000.00,028.4,026.8,000.0,036.8,029.8,9.8,0000.0,0006.91,0003.42,0003.10
2023-09-25 10:10:00,SystemResetWarning,0835.5,5.00,000.00,028.4,026.8,000.0,036.8,029.8,9.8,0000.0,0007.61,0003.44,0003.11
2023-09-25 10:11:00,SystemResetWarning,0835.5,5.02,000.00,028.4,026.8,000.0,036.8,029.8,9.9,0000.0,0007.74,0003.45,0003.10
2023-09-25 10:12:00,SystemResetWarning,0835.5,5.00,000.00,028.4,026.8,000.0,036.8,029.8,9.8,0000.0,0007.69,0003.45,0003.09
2023-09-25 10:13:00,SystemResetWarning,0835.5,4.99,000.00,028.4,026.8,000.0,036.8,029.8,9.8,0000.0,0007.51,0003.44,0003.09
2023-09-25 10:14:00,SystemResetWarning,0835.5,4.99,000.00,028.4,026.8,000.0,036.8,029.8,9.7,0000.0,0007.37,0003.44,0003.09
2023-09-25 10:15:00,SystemResetWarning,0835.5,4.99,000.00,028.4,026.8,000.0,036.8,029.8,9.7,0000.0,0007.25,0003.44,0003.08
2023-09-25 10:16:00,SystemResetWarning,0835.5,5.02,000.00,028.4,026.8,000.0,036.8,029.8,9.7,0000.0,0007.34,0003.46,0003.07
2023-09-25 10:17:00,SystemResetWarning,0835.5,5.00,000.00,028.3,026.8,000.0,036.8,029.8,9.7,0000.0,0007.36,0003.48,0003.08
2023-09-25 10:18:00,SystemResetWarning,0835.5,4.99,000.00,028.3,026.8,000.0,036.8,029.8,9.7,0000.0,0007.35,0003.50,0003.07
2023-09-25 10:19:00,SystemResetWarning,0835.5,5.00,000.00,028.3,026.8,000.0,036.8,029.8,9.6,0000.0,0007.00,0003.51,0003.07
2023-09-25 10:20:00,SystemResetWarning,0835.5,5.00,000.00,028.3,026.8,000.0,036.8,029.8,9.7,0000.0,0006.82,0003.49,0003.06
2023-09-25 10:21:00,SystemResetWarning,0835.5,4.99,000.00,028.3,026.8,000.0,036.8,029.7,9.6,0000.0,0006.13,0003.48,0003.06
2023-09-25 10:22:00,SystemResetWarning,0835.5,5.00,000.00,028.3,026.8,000.0,036.8,029.7,9.6,0000.0,0005.86,0003.49,0003.07
2023-09-25 10:23:00,SystemResetWarning,0835.5,5.00,000.00,028.3,026.7,000.0,036.8,029.8,9.5,0000.0,0005.91,0003.50,0003.09
2023-09-25 10:24:00,SystemResetWarning,0835.5,5.00,000.00,028.3,026.7,000.0,036.8,029.8,9.6,0000.0,0006.00,0003.52,0003.10
2023-09-25 10:25:00,SystemResetWarning,0835.5,5.01,000.00,028.3,026.7,000.0,036.8,029.7,9.6,0000.0,0006.06,0003.53,0003.11
2023-09-25 10:26:00,SystemResetWarning,0835.5,5.00,000.00,028.3,026.7,000.0,036.8,029.7,9.6,0000.2,0006.15,0003.55,0003.11
2023-09-25 10:27:00,SystemResetWarning,0835.5,5.00,000.00,028.3,026.7,000.0,036.8,029.7,9.6,0000.0,0006.31,0003.54,0003.11
2023-09-25 10:28:00,SystemResetWarning,0835.6,5.00,000.00,028.3,026.7,000.0,036.7,029.7,9.7,0000.0,0007.37,0003.52,0003.10
2023-09-25 10:29:00,SystemResetWarning,0835.6,5.00,000.00,028.3,026.7,000.0,036.7,029.7,9.5,0000.0,0007.82,0003.51,0003.09
2023-09-25 10:30:00,SystemResetWarning,0835.6,4.99,000.00,028.3,026.7,000.0,036.7,029.7,9.5,0000.0,0008.16,0003.51,0003.10
2023-09-25 10:31:00,SystemResetWarning,0835.6,4.99,000.00,028.3,026.7,000.0,036.7,029.7,9.5,0000.0,0008.24,0003.51,0003.10
2023-09-25 10:32:00,SystemResetWarning,0835.6,5.00,000.00,028.2,026.7,000.0,036.7,029.7,9.4,0000.0,0008.76,0003.52,0003.10
2023-09-25 10:33:00,SystemResetWarning,0835.6,5.02,000.00,028.2,026.7,000.0,036.7,029.7,9.5,0000.0,0009.20,0003.50,0003.08
2023-09-25 10:34:00,SystemResetWarning,0835.6,5.00,000.00,028.2,026.7,000.0,036.7,029.7,9.5,0000.0,0009.36,0003.49,0003.07
2023-09-25 10:35:00,SystemResetWarning,0835.6,5.00,000.00,028.2,026.7,000.0,036.7,029.7,9.4,0000.0,0009.40,0003.48,0003.06
2023-09-25 10:36:00,SystemResetWarning,0835.6,4.99,000.00,028.2,026.7,000.0,036.7,029.7,9.4,0000.0,0009.79,0003.47,0003.04
2023-09-25 10:37:00,SystemResetWarning,0835.6,4.99,000.00,028.2,026.7,000.0,036.7,029.7,9.4,0000.0,0009.84,0003.47,0003.05
2023-09-25 10:38:00,SystemResetWarning,0835.6,5.00,000.00,028.2,026.7,000.0,036.7,029.7,9.4,0000.0,0009.85,0003.47,0003.05
2023-09-25 10:39:00,SystemResetWarning,0835.6,5.00,000.00,028.2,026.7,000.0,036.7,029.7,9.4,0000.0,0009.46,0003.50,0003.04
2023-09-25 10:40:00,SystemResetWarning,0835.6,5.00,000.00,028.2,026.7,000.0,036.7,029.7,9.4,0000.0,0009.83,0003.47,0003.04
2023-09-25 10:41:00,SystemResetWarning,0835.6,5.00,000.00,028.2,026.7,000.0,036.7,029.7,9.4,0000.0,0009.47,0003.45,0003.02
2023-09-25 10:42:00,SystemResetWarning,0835.6,5.00,000.00,028.2,026.7,000.0,036.7,029.7,9.5,0000.0,0009.42,0003.45,0003.01
2023-09-25 10:43:00,SystemResetWarning,0835.6,5.00,000.00,028.2,026.7,000.0,036.7,029.7,9.4,0000.0,0008.97,0003.44,0003.00
2023-09-25 10:44:00,SystemResetWarning,0835.6,5.01,000.00,028.2,026.7,000.0,036.7,029.7,9.4,0000.0,0008.66,0003.42,0003.01
2023-09-25 10:45:00,SystemResetWarning,0835.6,5.00,000.00,028.2,026.7,000.0,036.7,029.7,9.4,0000.0,0008.42,0003.44,0003.02
2023-09-25 10:46:00,SystemResetWarning,0835.6,5.00,000.00,028.2,026.7,000.0,036.7,029.7,9.4,0000.0,0008.48,0003.45,0003.01
2023-09-25 10:47:00,SystemResetWarning,0835.6,5.00,000.00,028.2,026.7,000.0,036.7,029.7,9.3,0000.0,0008.53,0003.43,0003.01
2023-09-25 10:48:00,SystemResetWarning,0835.6,5.00,000.00,028.2,026.7,000.0,036.7,029.7,9.3,0000.0,0009.37,0003.41,0003.00
2023-09-25 10:49:00,SystemResetWarning,0835.6,5.00,000.00,028.2,026.7,000.0,036.7,029.7,9.4,0000.0,0009.82,0003.43,0003.00
2023-09-25 10:50:00,SystemResetWarning,0835.6,5.00,000.00,028.2,026.7,000.0,036.7,029.7,9.4,0000.0,0009.81,0003.41,0003.00
2023-09-25 10:51:00,SystemResetWarning,0835.6,4.99,000.00,028.2,026.7,000.0,036.6,029.7,9.3,0000.0,0009.01,0003.44,0003.00
2023-09-25 10:52:00,SystemResetWarning,0835.6,5.00,000.00,028.2,026.7,000.0,036.7,029.7,9.3,0000.0,0008.82,0003.43,0003.00
2023-09-25 10:53:00,SystemResetWarning,0835.6,5.00,000.00,028.2,026.7,000.0,036.7,029.7,9.3,0000.0,0008.80,0003.42,0003.00
2023-09-25 10:54:00,SystemResetWarning,0835.6,5.00,000.00,028.2,026.7,000.0,036.7,029.7,9.4,0000.0,0008.55,0003.42,0003.00
2023-09-25 10:55:00,SystemResetWarning,0835.7,5.00,000.00,028.2,026.7,000.0,036.6,029.7,9.3,0000.0,0008.44,0003.42,0002.99
2023-09-25 10:56:00,SystemResetWarning,0835.6,5.01,000.00,028.2,026.7,000.0,036.6,029.7,9.3,0000.0,0008.32,0003.38,0002.96
2023-09-25 10:57:00,SystemResetWarning,0835.6,5.02,000.00,028.2,026.7,000.0,036.7,029.7,9.3,0000.0,0008.30,0003.36,0002.94
2023-09-25 10:58:00,SystemResetWarning,0835.6,4.99,000.00,028.2,026.7,000.0,036.6,029.6,9.3,0000.0,0007.76,0003.39,0002.95
2023-09-25 10:59:00,SystemResetWarning,0835.6,4.99,000.00,028.2,026.7,000.0,036.6,029.7,9.2,0000.0,0006.59,0003.37,0002.94
